Theta_e
287 286 286 285 285 285 284 283 283 282 282 282 281 281 281 281 281 281 280 280 280 279 279 279 279 279 279 278 278 279 279 278 278 278 277 277 277 277 278 276 276 276
286 286 285 285 284 284 283 283 282 282 281 281 281 281 281 280 280 280 280 279 279 279 278 278 278 277 277 277 277 277 277 276 276 278 276 276 276 276 276 276 276 276
285 285 284 284 283 283 282 282 282 282 281 281 281 281 281 280 280 279 279 278 278 277 277 277 276 276 276 276 276 276 276 276 275 275 276 275 276 276 275 276 276 276
284 284 284 283 283 282 282 282 281 281 281 280 280 280 280 280 279 278 278 278 277 276 276 276 276 276 275 275 275 276 275 275 275 275 275 275 275 275 275 276 276 275
283 283 283 283 282 282 282 281 280 280 280 279 279 279 279 278 277 277 277 276 276 276 275 275 275 275 275 275 275 275 275 275 275 275 274 274 274 275 276 276 274 274
283 283 283 282 282 281 280 280 280 279 279 278 278 278 277 277 276 276 276 275 275 275 275 275 275 275 275 274 274 274 274 275 274 274 273 273 273 274 276 275 274 273
282 282 281 281 280 280 280 279 279 278 278 277 277 277 276 276 276 276 275 275 275 275 274 274 274 274 274 274 274 273 273 273 273 273 272 273 273 273 273 274 273 273
281 280 280 280 279 279 278 278 277 277 277 276 276 276 276 276 275 276 275 275 275 274 274 274 273 273 273 273 273 272 272 274 273 272 272 272 273 272 272 274 273 272
280 279 279 278 278 277 277 277 277 276 276 276 275 275 275 275 275 275 275 274 274 274 273 273 273 273 272 272 272 271 271 271 272 271 272 272 272 272 272 272 272 272
279 279 278 278 277 277 276 276 276 276 276 275 275 276 275 275 274 274 274 274 273 273 272 272 272 272 271 271 272 270 271 271 271 271 271 272 272 272 272 272 272 271
278 278 277 276 276 276 276 275 275 275 276 275 276 275 274 274 274 273 273 273 273 272 272 271 271 271 271 271 270 270 270 271 271 272 272 272 272 272 274 271 271 271
277 277 276 276 275 275 275 275 275 275 275 276 275 275 273 273 273 273 272 272 272 271 271 271 270 270 270 270 270 270 271 272 272 272 272 272 272 272 272 272 271 271
277 277 277 276 275 275 275 275 275 274 274 274 274 273 273 272 272 272 271 271 271 271 271 270 270 270 270 269 269 271 271 272 271 271 272 271 272 272 272 272 272 271
278 277 276 276 275 275 275 275 275 274 274 273 273 272 271 272 272 272 271 271 270 270 270 269 269 269 269 269 270 270 270 271 271 271 271 271 271 271 272 271 272 271
277 276 276 276 275 275 275 275 274 274 273 273 273 272 273 273 272 272 270 270 269 269 269 269 269 269 269 269 268 270 271 271 272 272 272 271 271 270 270 270 270 270
277 276 276 275 275 275 275 274 274 273 273 273 273 273 272 271 269 269 269 269 269 268 268 269 269 269 272 275 275 270 272 273 273 273 272 272 272 271 270 270 269 270
276 276 276 275 275 275 275 274 274 273 273 273 271 270 269 269 269 269 268 269 268 268 268 268 269 269 274 276 277 277 275 273 272 272 273 272 272 271 271 270 269 269
276 276 275 275 275 274 274 274 273 273 272 271 270 270 270 268 268 268 268 268 268 267 267 267 268 273 275 276 277 277 277 274 274 273 272 272 272 271 271 271 270 269
276 275 275 275 275 275 274 273 272 272 271 270 270 270 267 267 269 269 269 267 267 267 266 266 267 272 275 277 277 277 277 276 274 273 272 272 272 272 272 271 271 269
277 276 276 275 275 274 273 272 272 271 271 271 270 269 268 268 268 268 267 265 266 266 265 265 266 271 274 276 277 277 277 276 274 273 272 272 272 272 271 270 268 268
277 276 275 275 274 273 273 272 272 271 271 270 269 269 268 268 268 266 265 264 264 264 263 264 265 271 273 275 276 277 277 276 274 273 272 271 271 271 270 269 268 268
276 276 275 274 274 273 272 273 272 271 270 270 269 268 268 266 264 264 265 264 264 263 262 262 264 271 273 275 276 276 277 274 272 271 270 270 269 270 270 270 270 269
276 276 275 274 273 272 272 271 271 270 270 269 268 269 268 266 265 264 264 264 263 263 262 262 262 267 272 274 275 276 275 272 271 269 269 268 269 270 270 270 270 271
276 276 275 274 273 272 272 272 271 271 270 269 269 268 268 266 264 263 262 263 263 262 263 261 261 265 271 273 274 275 274 271 270 269 268 268 268 269 270 270 271 272
276 276 275 274 273 273 273 272 271 270 269 268 268 268 268 265 263 263 262 261 261 261 265 264 262 264 269 272 273 274 274 272 270 268 267 267 268 268 270 270 270 271
276 276 276 275 274 273 272 272 270 268 267 267 266 266 265 264 263 263 262 261 261 260 261 262 262 261 262 270 272 273 275 271 269 268 267 267 268 268 267 269 270 270
Wind_Speed
9 8 9 8 7 7 8 9 7 8 7 6 7 5 6 5 5 6 6 6 6 7 6 6 6 6 6 5 4 5 5 6 6 5 5 6 5 5 5 5 4 3
9 9 8 8 7 7 7 7 8 8 7 6 6 6 5 6 5 5 6 6 6 7 6 6 5 5 5 5 4 6 6 6 6 4 5 5 4 4 4 4 4 3
9 9 9 10 10 9 9 7 7 7 7 6 6 6 6 5 6 5 5 6 7 6 5 5 5 5 5 4 5 6 6 5 6 4 5 4 4 4 3 4 3 4
8 8 9 9 9 10 9 9 7 7 6 7 6 5 5 5 6 6 6 5 6 5 5 5 5 4 5 4 5 6 5 5 4 4 4 4 4 3 4 3 3 4
9 8 8 8 8 8 8 9 8 7 7 7 6 6 6 6 6 6 5 5 5 5 5 5 4 4 4 5 5 6 5 5 4 4 4 4 3 3 3 3 3 3
7 7 7 8 8 9 8 8 7 8 7 7 7 6 5 6 6 5 5 6 5 5 5 4 5 5 5 5 5 5 5 6 4 4 4 3 3 3 2 3 3 3
9 8 8 8 8 7 8 7 6 6 6 6 6 6 6 6 6 5 5 5 5 5 5 5 5 5 4 4 5 5 4 4 3 3 3 2 2 3 2 2 3 3
9 7 8 8 9 8 8 7 6 7 6 6 6 5 5 6 6 5 5 5 5 5 5 5 5 5 4 4 5 4 3 2 2 2 2 2 1 2 3 2 3 3
9 9 9 9 9 7 8 7 7 6 6 7 7 6 5 5 6 5 5 5 5 5 5 4 4 4 3 4 3 3 2 1 1 2 1 1 2 2 2 2 3 3
9 9 10 9 9 7 8 7 7 6 6 7 7 6 7 5 5 5 5 5 6 5 5 4 4 3 3 3 2 2 2 1 1 1 1 1 1 2 2 3 3 3
10 10 10 9 9 8 8 8 7 7 6 7 7 7 6 6 4 4 5 5 6 4 4 3 3 3 2 2 2 2 1 1 1 1 2 1 1 2 3 2 3 3
10 10 10 10 10 9 9 8 7 6 6 6 6 7 6 4 6 4 5 5 4 4 3 3 3 2 2 1 1 1 2 2 2 2 2 2 1 2 2 2 3 3
11 11 11 10 10 9 8 7 7 7 7 7 6 6 7 6 5 6 4 5 4 4 3 3 2 2 1 1 2 2 1 1 1 2 2 1 1 2 2 3 3 3
11 10 10 10 9 8 8 8 7 7 7 6 6 7 6 6 7 6 4 4 4 4 3 3 2 1 1 3 2 2 1 1 1 0 1 1 2 2 2 2 3 3
10 9 8 9 10 9 9 9 9 8 7 7 6 6 6 6 6 6 5 5 4 4 2 2 2 2 2 3 3 1 2 1 0 1 1 2 2 2 2 2 3 3
10 10 10 10 10 10 10 9 8 8 7 7 7 6 6 6 5 5 5 4 4 3 3 2 2 1 3 7 6 4 2 2 1 2 2 3 3 2 2 3 3 3
11 10 10 11 10 9 8 8 9 7 6 6 5 5 7 6 6 6 5 4 4 3 3 2 2 2 7 8 6 6 4 2 3 3 3 3 3 3 3 3 3 2
11 11 11 11 10 9 9 8 7 7 7 7 6 6 5 5 6 6 5 4 4 3 3 3 1 4 8 8 7 6 5 3 3 2 2 3 3 4 3 3 3 2
12 13 12 11 10 10 9 8 8 8 7 7 8 6 5 5 7 7 6 4 4 4 3 2 2 5 7 8 8 6 6 4 3 3 2 3 4 4 5 5 3 3
12 12 11 11 9 9 9 9 10 10 8 6 6 6 6 5 5 6 5 5 5 4 3 2 2 5 8 8 7 7 7 5 3 3 3 4 4 5 4 3 3 4
12 11 11 9 9 9 9 10 10 8 8 7 8 8 9 8 8 7 5 5 4 4 4 3 3 7 9 9 8 8 7 5 3 3 2 3 4 4 4 3 3 4
12 12 10 10 10 10 10 11 10 10 10 8 7 5 3 4 4 4 6 5 5 4 4 4 3 8 9 10 8 7 6 3 2 2 3 3 4 4 5 4 3 4
12 12 12 11 11 11 11 11 12 9 8 7 8 7 7 7 7 6 5 6 5 5 5 4 3 6 9 9 7 7 5 2 3 2 4 4 5 5 4 5 5 5
12 12 12 12 12 14 14 11 9 6 9 9 11 10 9 8 6 6 5 6 6 6 6 4 4 5 8 8 7 7 6 4 4 4 4 5 3 5 4 4 5 9
11 12 12 13 14 14 12 13 13 12 8 8 7 7 7 6 6 6 5 5 5 5 6 5 4 5 7 7 8 9 7 3 3 3 4 4 4 4 4 3 4 7
12 13 13 13 14 11 9 10 7 7 8 9 6 6 7 6 6 6 7 6 5 4 5 4 4 5 4 8 9 10 11 5 5 5 6 5 5 4 4 4 6 6
Wind_Direction
125 126 128 125 125 126 127 124 120 114 111 111 114 119 111 117 102 93 93 87 84 82 75 71 65 64 61 62 68 77 73 68 56 45 49 50 49 64 50 40 33 35
123 121 118 115 112 109 107 112 116 116 117 115 116 115 108 104 96 98 96 90 82 81 77 73 72 74 73 71 67 77 70 63 56 38 51 48 34 54 50 48 40 18
124 124 126 127 125 120 115 109 110 114 117 121 115 110 111 104 104 94 94 94 91 86 81 82 79 71 72 73 75 79 82 69 57 39 53 48 33 44 37 44 32 28
120 124 124 120 119 120 119 117 115 115 117 114 118 119 112 109 104 102 94 92 96 94 89 81 77 72 71 72 78 77 82 76 71 58 48 35 32 36 18 32 33 28
128 122 119 115 115 117 121 123 126 125 121 123 115 114 113 112 108 105 102 100 103 97 88 85 78 74 73 69 71 72 61 64 52 57 53 37 11 37 11 51 39 29
114 118 119 122 126 129 127 127 129 128 129 123 124 119 117 115 112 115 115 110 101 101 97 92 81 68 67 67 65 67 65 56 46 63 51 47 8 19 34 36 37 24
131 127 124 122 122 123 123 126 127 126 124 127 119 121 127 119 119 121 116 114 111 104 96 86 75 67 60 66 64 59 50 69 54 65 68 30 50 6 14 33 28 17
129 127 126 126 124 124 125 130 132 129 133 125 123 131 126 126 120 119 117 117 109 95 90 84 77 72 63 65 69 64 49 64 68 64 73 29 44 23 8 14 22 11
132 133 131 131 129 131 133 136 134 133 136 133 135 134 127 121 124 122 122 114 100 95 88 83 79 73 70 77 80 102 97 62 77 74 63 35 34 16 6 360 4 353
137 137 135 137 137 142 140 140 141 143 148 140 141 136 126 123 125 129 117 105 100 90 90 95 86 88 68 87 105 106 94 78 34 39 48 60 60 16 1 360 344 344
143 144 142 143 144 146 146 145 147 148 150 144 136 131 132 129 124 112 106 102 100 106 103 101 111 107 89 59 59 92 97 59 34 51 43 49 39 9 359 356 337 330
150 149 151 151 151 152 152 151 148 148 147 140 140 137 135 134 124 107 107 109 113 111 113 106 101 108 107 120 101 67 57 67 64 54 33 20 3 354 343 329 321 310
159 160 157 156 156 154 151 152 153 151 148 149 154 145 142 135 120 115 118 116 115 115 108 118 110 105 120 128 107 96 104 81 56 37 20 357 336 330 319 314 305 295
165 159 157 156 151 151 154 154 152 151 149 152 149 147 141 135 135 131 128 126 119 118 122 125 120 113 131 134 124 137 121 63 61 48 327 313 299 296 297 288 289 294
159 156 154 153 152 153 155 158 159 147 152 154 150 143 133 131 131 132 128 128 129 133 133 127 150 188 169 152 145 148 132 99 15 294 286 275 274 272 276 281 291 292
160 159 159 156 157 162 165 160 155 156 159 159 153 141 132 130 126 128 133 137 140 150 152 173 176 184 216 199 179 160 168 191 219 251 259 270 278 273 269 278 279 283
162 164 161 165 168 164 161 160 160 162 166 159 146 141 143 144 137 137 144 143 148 156 172 165 184 202 234 225 217 205 180 199 229 242 262 275 281 287 292 289 284 289
168 164 167 170 167 170 167 164 159 161 164 158 150 151 157 143 145 153 149 150 149 155 171 195 211 241 239 237 231 226 216 207 225 243 261 275 281 284 289 294 297 307
170 172 174 173 175 169 165 159 161 163 162 163 172 167 151 157 162 154 161 157 155 170 185 202 190 248 250 249 243 232 232 230 227 245 260 270 276 283 287 290 306 309
175 176 178 176 169 165 163 165 169 177 171 164 154 160 168 161 160 163 162 165 167 170 187 202 219 252 254 253 245 238 234 235 225 241 258 268 273 276 281 298 300 288
177 179 178 170 169 168 169 174 177 167 162 166 173 177 174 178 173 170 174 167 168 165 172 205 228 244 250 252 244 237 236 235 230 241 252 265 270 275 275 269 267 268
178 178 175 172 171 172 175 176 176 176 172 170 168 169 166 145 152 148 166 173 174 171 176 221 243 246 250 252 244 237 237 226 199 241 244 255 262 256 268 269 262 261
179 176 176 174 172 174 182 184 172 177 175 165 168 175 168 180 178 171 168 170 176 176 181 223 240 253 253 251 248 238 229 140 148 207 247 243 252 256 260 268 270 276
180 178 177 176 176 186 189 184 181 177 175 174 175 172 184 187 168 159 170 177 180 183 184 201 234 248 250 253 253 247 230 183 213 215 232 239 240 256 257 264 268 278
180 181 182 183 188 193 187 182 185 185 174 169 179 177 176 154 159 161 174 185 186 178 188 198 235 250 261 263 255 252 242 169 164 184 228 240 235 238 257 240 253 267
184 185 187 187 193 189 184 186 169 157 169 175 173 168 160 162 161 168 178 193 182 171 193 200 222 250 252 262 261 254 239 197 177 207 223 225 227 230 220 249 246 245